Location: Unspecified
(0.0000°N, 0.0000°E)
Time: 10:21:44
(UTC+00:00)

ARIANE 1 DEB - Pass Details

Date: 14 February 2026
Orbit: 1090 x 21662 km, 16.1° (Epoch: 9 December)

Event Time Altitude Azimuth Distance (km) Brightness Sun altitude
Rises 00:13:01 0° 264° (W) 16,446 ? -76.9°
Reaches altitude 10° 00:31:11 10° 260° (W) 18,301 ? -76.3°
Maximum altitude 05:13:22 81° 165° (SSE) 5,615 ? -14.8°
Drops below altitude 10° 05:30:06 10° 79° (E) 4,986 ? -10.7°
Sets 05:32:20 0° 78° (ENE) 5,482 ? -10.2°
